Location: ????
(35.7382°N, 51.5600°E)
Time: 12:48:31
(UTC+00:00)

Daily predictions for brighter satellites

Satellite Brightness Start Highest point End
(mag) Time Altitude Azimuth Time Altitude Azimuth Time Altitude Azimuth
SL-08 RB Rocket 4.2 15:50:28 10° SE 15:54:46 42° ENE 15:59:09 10° N
SL-4 R/B 2.7 15:51:12 10° SSW 15:54:57 32° SE 15:58:28 10° ENE
Cosmos 2251 Rocket 3.5 15:53:42 10° S 15:58:51 62° ESE 16:04:03 10° NNE
Cosmos 1606 3.4 15:57:40 10° NNW 16:01:28 59° W 16:05:12 10° S
Cosmos 2228 Rocket 4.3 16:01:36 10° NNE 16:05:12 24° ENE 16:08:47 10° SE
BREEZE M DEB (TANK) 3.9 16:05:50 10° W 16:07:36 18° SW 16:09:10 10° S
Cosmos 1515 Rocket 3.8 16:04:20 10° N 16:08:42 54° E 16:13:04 10° SSE
Resurs 01 Rocket 3.2 16:12:23 11° ESE 16:15:13 18° ENE 16:18:13 10° NNE
ISS -1.0 16:13:38 10° W 16:15:17 13° SW 16:16:57 10° SSW
Cosmos 389 Rocket 4.4 16:13:35 10° NE 16:15:21 13° ENE 16:16:37 12° E
Meteor 1-26 Rocket 4.1 16:10:28 10° N 16:16:02 84° E 16:21:27 10° S
Cosmos 1151 Rocket 3.6 16:11:49 10° NNW 16:16:02 61° W 16:20:13 10° S
USA 267 3.2 16:10:57 10° NE 16:17:30 75° SE 16:24:02 10° SW
Cosmos 614 Rocket 4.5 16:14:02 10° SSE 16:18:42 37° E 16:23:25 10° NE
Cosmos 1633 3.1 16:16:12 10° SSW 16:19:41 61° W 16:23:11 10° N
Cosmos 2366 rocket 4.1 16:16:55 10° S 16:23:12 88° W 16:29:26 10° N
Cosmos 1900 4.5 16:18:41 10° SSW 16:23:35 79° WNW 16:28:35 10° NNE
Cosmos 1441 Rocket 4.1 16:21:44 10° SSE 16:25:02 28° E 16:28:18 10° NNE
IRS-1A Rocket 4.3 16:19:47 10° SSE 16:25:23 87° ENE 16:31:09 10° NNW
COSMOS 2406 3.2 16:20:44 10° S 16:26:22 61° ESE 16:32:02 10° NNE
FALCON 9 DEB 3.6 16:24:42 10° SSW 16:27:57 38° SE 16:31:14 10° ENE
Cosmos 1743 Rocket 4.0 16:33:22 10° SSW 16:37:45 67° W 16:42:12 10° N
Cosmos 2082 Rocket 2.9 16:37:09 10° SSE 16:42:04 31° ESE 16:46:59 10° NE
CZ-2C R/B 3.6 16:38:32 10° NNE 16:43:07 73° E 16:47:37 10° S
Gbstr 26 Del rocket 3.9 16:40:08 10° WNW 16:43:34 34° SW 16:46:04 16° S
BREEZE-M DEB (TANK) 2.6 16:38:58 10° NW 16:43:59 44° NNE 16:45:20 24° E
IRIDIUM 106 4.4 16:39:01 10° SSE 16:44:07 60° E 16:49:15 10° N
MONITOR-E 3.4 16:43:40 29° S 16:44:42 81° WSW 16:47:05 10° NNW
Meteor 2-6 Rocket 4.2 16:40:21 10° N 16:45:51 64° E 16:50:26 16° SSE
Sich 1 3.3 16:43:53 15° SSE 16:47:18 46° E 16:51:33 10° NNE
Cosmos 1862 3.2 16:44:59 10° S 16:49:01 83° E 16:53:04 10° N
SJ-6B 3.7 16:47:30 10° S 16:51:29 50° W 16:55:26 10° NNW
Ariane Rocket 4.0 16:49:46 10° S 16:54:34 44° W 16:59:25 10° NNW
Shenzhou-11 Module 4.1 16:53:30 10° NW 16:54:58 15° N 16:56:02 12° NNE
Cosmos 1190 Rocket 4.1 16:53:03 10° S 16:58:06 51° ESE 17:03:13 10° NNE
USA 238 DEB 4.2 16:53:18 10° S 16:59:02 33° ESE 17:04:55 10° NE
USA 238 4.2 16:53:27 10° S 16:59:08 33° ESE 17:05:00 10° NE
Cosmos 407 Rocket 3.4 16:55:51 10° S 17:01:09 70° ESE 17:06:26 10° NNE
Resurs 1-3 3.6 16:58:43 20° S 17:01:40 86° WSW 17:06:05 10° NNW
Cosmos 1992 Rocket 4.4 16:57:56 10° NNW 17:03:06 60° WSW 17:07:16 15° S
CZ-2C R/B 3.8 16:59:30 10° N 17:04:21 42° WNW 17:09:15 10° SW
Cosmos 1666 Rocket 3.6 17:07:16 37° SE 17:08:33 51° E 17:12:44 10° NNE
Meteor 1-27 Rocket 4.1 17:03:48 10° N 17:09:34 51° ENE 17:12:01 32° SE
Meteor 1-10 Rocket 4.2 17:04:15 10° N 17:09:57 86° E 17:13:45 23° S
SL-8 R/B 4.3 17:06:19 10° NW 17:11:00 48° NNE 17:12:54 31° E
Meteor 1-4 Rocket 4.2 17:12:14 10° NNE 17:14:03 20° NE 17:14:03 20° NE
SPOT 1/Viking Rocket 4.3 17:18:37 32° E 17:19:32 35° ENE 17:24:13 10° N
Cosmos 1805 Rocket 4.5 17:16:03 10° SSW 17:20:18 49° W 17:24:37 10° N
Cosmos 1980 Rocket 3.4 17:17:44 10° N 17:22:28 26° ENE 17:23:33 25° ENE
Cosmos 972 4.3 17:18:51 10° N 17:23:56 72° ENE 17:25:13 48° SE
CZ-3A R/B 4.0 16:59:26 10° W 17:26:41 45° SSW 17:30:58 30° SSE
Cosmos 1140 Rocket 3.4 17:21:58 10° SSW 17:27:12 87° WNW 17:32:29 10° NNE
CENTAUR R/B 3.8 17:30:36 22° ENE 17:30:36 22° ENE 17:33:31 10° NE
ATLAS 5 CENTAUR R/B 2.5 17:25:24 10° NNW 17:31:28 84° WSW 17:34:11 39° SSE
USA 32 4.2 17:32:03 48° ESE 17:32:25 49° E 17:37:27 10° NNE
Cosmos 1833 Rocket 3.5 17:27:31 10° SW 17:32:57 52° WNW 17:38:27 10° NNE
SL-4 R/B 3.7 17:30:56 10° W 17:34:31 31° NW 17:37:54 10° NNE
Skynet4D Del rocket 4.5 17:31:10 10° WSW 17:35:31 33° S 17:35:31 33° S
Cosmos 1697 Rocket 2.6 17:32:52 10° NNW 17:38:29 69° ENE 17:39:35 55° SE
Cosmos 1867 3.5 17:36:06 10° SSW 17:41:31 85° WNW 17:47:00 10° NNE
Cosmos 1633 Rocket 3.1 17:41:02 55° SSW 17:41:55 76° W 17:46:21 10° N
Cosmos 389 Rocket 4.4 17:47:12 10° NW 17:50:01 24° W 17:50:28 23° WSW
Cosmos 1656 4.3 17:44:57 10° NNW 17:50:12 47° WSW 17:52:04 34° SSW
Cosmos 1812 4.2 17:47:17 10° NNW 17:50:40 30° W 17:51:28 28° WSW
Cosmos 1934 Rocket 4.2 17:47:28 25° SSW 17:51:23 73° W 17:57:47 10° N
Resurs 01 Rocket 2.9 17:49:57 28° SW 17:51:23 35° W 17:55:27 10° NNW
Landsat 7 3.6 17:51:13 81° S 17:51:27 89° WSW 17:56:14 10° NNW
NOSS 3-2 (A) 3.1 17:50:01 22° SSW 17:53:43 87° ESE 17:59:53 10° NNE
Meteor 1-25 Rocket 4.0 17:53:22 68° SE 17:53:43 71° E 17:59:17 10° NNE
Cosmos 676 Rocket 4.1 17:53:41 42° SSW 17:55:31 78° WNW 18:00:53 10° NNE
Aureole 1 Rocket 4.4 17:51:03 16° SSW 17:56:18 74° WNW 18:04:13 10° NNE
Cosmos 1707 Rocket 4.2 17:54:03 10° NNW 17:58:13 47° W 17:58:34 46° WSW
NOSS 3-2 (C) 3.9 18:01:11 42° ENE 18:01:11 42° ENE 18:05:30 10° NE
IGS 5A 4.1 18:04:39 52° WNW 18:04:39 52° WNW 18:08:13 10° NNW
Cosmos 1470 Rocket 4.0 18:05:17 59° NNW 18:05:17 59° NNW 18:08:55 10° N
Cosmos 2360 4.0 17:59:26 10° NNW 18:05:12 87° ENE 18:05:31 81° SE
SL-24 R/B - RUBIN 2 4.2 18:07:24 10° NNW 18:13:59 90° SW 18:14:19 82° SSE
Meteor 2-20 Rocket 4.5 18:09:16 10° N 18:15:26 74° W 18:16:19 63° SSW
ERS-1 Rocket 3.2 18:16:08 66° N 18:16:08 66° N 18:20:30 10° N
GP-B 4.0 18:11:40 10° N 18:15:46 46° WNW 18:15:46 46° WNW
SL-16 R/B 3.8 18:16:37 10° N 18:20:35 23° NE 18:20:35 23° NE
Cosmos 2369 4.2 18:20:27 10° NNW 18:25:58 50° WSW 18:26:08 50° WSW
Cosmos 2082 Rocket 3.8 18:20:58 10° SW 18:26:02 32° WNW 18:31:07 10° N
Lacrosse 5 4.0 18:23:20 10° N 18:26:36 17° NNE 18:27:12 17° NE
USA 234 3.2 18:31:25 69° ENE 18:31:55 72° NE 18:38:26 10° NW
Cosmos 1818 4.5 18:27:06 10° NW 18:31:46 40° WSW 18:31:46 40° WSW
Cosmos 2100 Rocket 4.5 18:36:11 49° NE 18:36:11 49° NE 18:40:51 10° NNE
Cosmos 2278 4.0 18:29:42 10° NNW 18:34:49 62° WNW 18:34:49 62° WNW
Terra 2.9 18:42:15 41° NNW 18:42:15 41° NNW 18:45:20 10° NNW
ATLAS 3B R/B 4.2 18:46:47 21° ENE 18:46:47 21° ENE 18:48:57 10° NE
Cosmos 2322 Rocket 3.7 18:38:46 10° N 18:42:37 27° NE 18:42:37 27° NE
Cosmos 2173 Rocket 4.4 18:52:00 55° NNE 18:52:00 55° NNE 18:56:44 10° N
Cosmos 2360 Rocket 4.1 18:53:41 10° N 18:56:50 19° NE 18:56:50 19° NE
Cosmos 1980 Rocket 3.5 19:01:19 10° NW 19:05:19 34° WNW 19:05:19 34° WNW
Cosmos 1459 Rocket 4.5 19:13:36 57° NNW 19:13:36 57° NNW 19:18:43 10° N
CENTAUR R/B 3.4 19:17:41 40° WNW 19:18:30 42° NW 19:24:54 10° NNE
SL-16 R/B 4.1 20:00:01 10° NW 20:02:26 25° NW 20:02:26 25° NW
Lacrosse 5 4.3 20:05:08 10° NW 20:06:22 18° NW 20:06:22 18° NW
Cosmos 2219 Rocket 4.1 20:11:55 10° N 20:14:57 25° NNE 20:14:57 25° NNE
Cosmos 2322 Rocket 4.3 20:22:35 10° NW 20:24:25 19° NW 20:24:25 19° NW
ATLAS 3B R/B 3.8 20:34:00 35° NW 20:34:00 35° NW 20:39:33 10° NNE
Cosmos 2360 Rocket 4.2 20:36:38 10° NNW 20:38:35 22° NW 20:38:35 22° NW
COSMOS 2428 4.4 20:37:37 10° N 20:40:38 29° N 20:40:38 29° N
Cosmos 2297 Rocket 4.4 20:52:31 17° NE 20:52:31 17° NE 20:54:05 10° NE
Cosmos 2333 Rocket 4.0 20:56:47 10° NNW 20:59:20 27° NNW 20:59:20 27° NNW
Cosmos 2237 Rocket 4.0 21:02:13 10° N 21:05:46 25° NE 21:05:46 25° NE
Resurs 1-4 Rocket 4.1 21:24:58 10° NE 21:27:17 22° NE 21:27:17 22° NE
ATLAS 3B CENTAUR R/B 4.2 21:16:27 10° WSW 21:40:09 49° SE 21:46:31 10° E
Cosmos 2227 Rocket 3.6 21:40:53 34° NNE 21:40:53 34° NNE 21:44:03 10° NNE
SL-16 R/B 3.1 22:01:09 55° NE 22:01:09 55° NE 22:06:41 10° N
ADEOS II 3.6 22:08:55 10° NE 22:12:35 29° ENE 22:12:35 29° ENE
CZ-2D R/B 3.1 22:09:48 10° NNE 22:13:36 46° NNE 22:13:36 46° NNE
SL-16 R/B 3.4 22:11:54 10° N 22:17:10 37° ENE 22:17:55 36° E
Cosmos 2263 Rocket 3.9 22:28:29 23° ESE 22:28:35 23° E 22:32:50 10° NE
Cosmos 2297 Rocket 3.6 22:34:19 29° NW 22:34:19 29° NW 22:38:09 10° N
USA 215 3.1 22:28:20 10° NE 22:34:48 88° NE 22:34:48 88° NE
Meteor 2-5 Rocket 4.2 22:30:46 10° N 22:35:10 56° N 22:35:10 56° N
SJ 16-02 3.1 22:41:00 28° N 22:41:00 28° N 22:43:12 10° N
Cosmos 2237 Rocket 4.1 22:45:58 10° NW 22:47:32 18° NW 22:47:32 18° NW
Cosmos 1455 Rocket 4.2 22:54:05 41° NNE 22:54:05 41° NNE 22:57:01 10° N
NOSS 3-1 (C) 3.3 23:02:20 66° NW 23:02:20 66° NW 23:08:04 10° NNE
Timation 1 Rocket 4.2 23:04:29 82° SSE 23:04:43 85° ESE 23:10:42 10° NNE
Resurs 1-4 Rocket 3.5 23:04:57 10° NNW 23:08:21 25° NW 23:08:21 25° NW
Cosmos 1470 4.2 23:11:45 33° N 23:11:45 33° N 23:14:05 10° N
IRS-P3 4.0 23:05:34 10° NNE 23:10:57 88° ESE 23:11:04 86° SSE
Cosmos 1937 Rocket 3.5 23:11:54 75° NW 23:11:54 75° NW 23:16:59 10° NNE
Cosmos 2112 Rocket 3.9 23:07:30 10° NNW 23:12:39 85° NNE 23:12:39 85° NNE
SL-08 R/B 3.8 23:16:20 41° SE 23:17:48 60° ENE 23:22:41 10° N
NOSS 2-3 (D) 3.8 23:19:29 66° NNE 23:19:29 66° NNE 23:23:29 10° NNE
Cosmos 1898 Rocket 4.1 23:19:30 45° NW 23:19:30 45° NW 23:24:05 10° N
CBERS-1 4.5 23:14:35 10° N 23:19:01 47° NW 23:19:01 47° NW
BREEZE-M DEB (TANK) 3.8 23:22:39 48° SE 23:22:52 48° SE 23:31:45 10° NE
Cosmos 2227 Rocket 4.1 23:22:42 15° WNW 23:23:01 15° NW 23:26:14 10° NNW
ARIANE 5 R/B 2.5 23:20:57 10° NNE 23:26:12 84° ESE 23:27:00 65° S
Cosmos 372 Rocket 4.1 23:27:37 54° SSE 23:28:36 67° ESE 23:33:48 10° NNE
H-2A R/B 4.3 23:26:32 10° ESE 23:29:45 22° ENE 23:32:58 10° NNE
Cosmos 1680 Rocket 3.9 23:24:47 10° NNW 23:28:50 45° WNW 23:28:50 45° WNW
Cosmos 1607 4.0 23:29:14 10° NW 23:35:34 59° WSW 23:37:47 39° S
USA 229 DEB 4.0 23:34:40 40° W 23:36:18 49° NW 23:42:51 10° NNE
USA 229 4.0 23:34:45 41° W 23:36:23 49° NW 23:42:55 10° NNE
Cosmos 2227 4.1 23:35:52 57° SW 23:37:03 76° WNW 23:42:51 10° NNE
DEBRIS 3.8 23:38:58 32° NE 23:38:58 32° NE 23:40:10 10° NE
Cosmos 1544 Rocket 4.3 23:40:04 39° NW 23:40:04 39° NW 23:43:39 10° N
IDEFIX/ARIANE 42P 2.6 23:36:27 10° NNE 23:41:40 76° ESE 23:43:35 40° S
ERS-1 4.4 23:37:01 10° N 23:41:56 66° WNW 23:42:37 58° WSW
Delta 2 Rocket 4.0 23:43:37 37° ESE 23:43:37 37° ESE 23:46:27 10° E
Meteor 1-21 Rocket 4.4 23:38:39 10° N 23:44:11 68° E 23:49:20 12° SSE
Cosmos 1726 2.6 23:45:03 49° NNW 23:45:03 49° NNW 23:47:59 10° N
SL-16 R/B 4.1 23:46:15 17° WNW 23:46:15 17° WNW 23:48:50 10° NW
NOSS 2-3 (C) 4.1 23:46:55 42° WNW 23:47:10 43° NW 23:51:39 10° NNE
NOSS 3-1 (A) 3.5 23:46:16 42° W 23:47:33 51° NW 23:53:28 10° NNE
Cosmos 1125 Rocket 4.5 23:47:15 20° SSE 23:50:30 42° ESE 23:55:26 10° NNE
Meteor 1-16 Rocket 4.1 23:50:20 32° S 23:52:55 81° E 23:58:24 10° N
ADEOS II 3.2 23:48:43 10° NNW 23:53:06 28° WNW 23:53:32 27° WNW
CZ-2D R/B 4.3 23:53:06 10° NW 23:54:32 11° WNW 23:54:54 11° WNW
SL-23 DEB 3.9 23:50:07 10° NW 23:55:40 62° SW 23:59:09 10° SE
